Content
SEND FEEDBACK

Daily
Averages
Monthly
Summary
United States of America

COLUMBUS, MISSISSIPPI


Home > North America > United States > Mississippi
Elevation: 191 feet     Latitude: 33 39N     Longitude: 088 27W

WEATHER
 
SELECT A DAY
Number of Records: 98,540;   Date Range: 2/1/07 - 8/25/14
 
SHARE

PRINT THIS DATA

[ ← Previous Day ]
WEATHER ALMANAC - JANUARY 31, 2013
[ Next Day → ]
[ °C ]   °F
Weather ElementAverageHighLow
Temperature42.4 °F54.9 °F (3:58 pm)30.4 °F (6:58 am)
Dewpoint26.5 °F29.7 °F (8:58 am)23.7 °F (1:58 pm)
Humidity56.8 %86 % (6:58 am)31 % (3:58 pm)
Barometer30.19 in30.26 in (11:58 pm)30.09 in (1:58 am)
Wind Speed7.8 mph15 mph (11:58 pm)
Weather ElementAverage
Visibility10 mi
Wind DirectionWSW (233.5 °)

Weather ElementTotal
Precipitation---
Heating Degree Days22.4 (Base 65)
Averaged from 23 records on January 31, 2013
WEATHER CONDITIONS BREAKOUT
WIND DIRECTION BREAKOUT
WEATHER BY HOUR - JANUARY 31, 2013
[ °C ]   °F
Local TimeTemperatureDewpointHumidityBarometerVisibilityWind DirectionWind SpeedGust SpeedPrecipitationEventsConditions
1:58 AM36.1 °F26.1 °F67 %30.09 in10.0 miWest (280°)6.9 mphClear
2:58 AM33.1 °F25.9 °F75 %30.12 in10.0 miWSW (240°)5.8 mphClear
3:58 AM32.2 °F26.2 °F79 %30.12 in10.0 miWSW (240°)8.1 mphClear
4:58 AM31.1 °F26.2 °F82 %30.14 in10.0 miWSW (240°)5.8 mphClear
5:58 AM30.6 °F26.6 °F85 %30.16 in10.0 miWSW (240°)5.8 mphClear
6:58 AM30.4 °F26.8 °F86 %30.19 in10.0 miWest (280°)6.9 mphClear
7:58 AM34.7 °F29.1 °F80 %30.19 in10.0 miWNW (300°)6.9 mphClear
8:58 AM39.7 °F29.7 °F67 %30.22 in10.0 miWNW (290°)10.4 mphClear
9:58 AM43.3 °F27.5 °F54 %30.25 in10.0 miWest (280°)11.5 mphClear
10:58 AM46.4 °F27.7 °F48 %30.25 in10.0 miWSW (250°)8.1 mphClear
11:58 AM48.0 °F26.2 °F43 %30.23 in10.0 miVariable4.6 mphClear
12:58 PM51.1 °F24.1 °F35 %30.21 in10.0 miWest (270°)10.4 mphClear
1:58 PM52.7 °F23.7 °F32 %30.19 in10.0 miWSW (240°)9.2 mphClear
2:58 PM54.3 °F25.2 °F32 %30.18 in10.0 miWSW (250°)8.1 mphClear
3:58 PM54.9 °F24.4 °F31 %30.16 in10.0 miSW (230°)10.4 mphClear
4:58 PM53.2 °F24.8 °F33 %30.15 in10.0 miSSW (210°)12.7 mphClear
5:58 PM47.8 °F25.2 °F41 %30.15 in10.0 miSouth (180°)4.6 mphClear
6:58 PM45.7 °F25.5 °F45 %30.19 in10.0 miSSW (210°)4.6 mphClear
7:58 PM43.5 °F27.1 °F53 %30.19 in10.0 miSSW (210°)3.5 mphClear
8:58 PM39.0 °F28.9 °F67 %30.22 in10.0 miSSW (200°)5.8 mphClear
9:58 PM40.6 °F28.0 °F61 %30.22 in10.0 miSouth (190°)4.6 mphClear
10:58 PM44.2 °F27.5 °F52 %30.22 in10.0 miSW (230°)10.4 mphClear
11:58 PM41.5 °F28.0 °F59 %30.26 in10.0 miNW (310°)15.0 mphClear
Hourly data recorded from KCBM, located miles away from Columbus, Mississippi







STORIES FROM OUR PARTNERS